Year,Month,Day,Hour,Minute,Value (Times are PST for windspeed in km/hr)
2017,05,24,00,00,0.90
2017,05,24,00,01,0.20
2017,05,24,00,02,2.40
2017,05,24,00,03,4.00
2017,05,24,00,04,5.50
2017,05,24,00,05,6.10
2017,05,24,00,06,4.30
2017,05,24,00,07,7.00
2017,05,24,00,08,5.80
2017,05,24,00,09,11.90
2017,05,24,00,10,10.10
2017,05,24,00,11,8.60
2017,05,24,00,12,10.00
2017,05,24,00,13,14.00
2017,05,24,00,14,12.80
2017,05,24,00,15,15.90
2017,05,24,00,16,13.90
2017,05,24,00,17,8.60
2017,05,24,00,18,8.90
2017,05,24,00,19,7.60
2017,05,24,00,20,9.70
2017,05,24,00,21,6.00
2017,05,24,00,22,7.60
2017,05,24,00,23,6.50
2017,05,24,00,24,8.20
2017,05,24,00,25,6.30
2017,05,24,00,26,7.60
2017,05,24,00,27,6.60
2017,05,24,00,28,6.60
2017,05,24,00,29,5.10
2017,05,24,00,30,8.10
2017,05,24,00,31,7.90
2017,05,24,00,32,9.70
2017,05,24,00,33,6.80
2017,05,24,00,34,9.50
2017,05,24,00,35,7.10
2017,05,24,00,36,8.70
2017,05,24,00,37,8.30
2017,05,24,00,38,8.10
2017,05,24,00,39,8.80
2017,05,24,00,40,8.30
2017,05,24,00,41,7.10
2017,05,24,00,42,6.60
2017,05,24,00,43,9.20
2017,05,24,00,44,6.30
2017,05,24,00,45,6.80
2017,05,24,00,46,8.00
2017,05,24,00,47,6.80
2017,05,24,00,48,6.40
2017,05,24,00,49,9.90
2017,05,24,00,50,8.40
2017,05,24,00,51,9.70
2017,05,24,00,52,9.90
2017,05,24,00,53,9.60
2017,05,24,00,54,9.70
2017,05,24,00,55,9.10
2017,05,24,00,56,12.80
2017,05,24,00,57,11.10
2017,05,24,00,58,9.70
2017,05,24,00,59,8.80
2017,05,24,01,00,8.80
2017,05,24,01,01,9.20
2017,05,24,01,02,7.70
2017,05,24,01,03,7.90
2017,05,24,01,04,10.30
2017,05,24,01,05,10.00
2017,05,24,01,06,7.30
2017,05,24,01,07,6.40
2017,05,24,01,08,7.30
2017,05,24,01,09,8.80
2017,05,24,01,10,8.60
2017,05,24,01,11,10.20
2017,05,24,01,12,9.10
2017,05,24,01,13,10.40
2017,05,24,01,14,7.80
2017,05,24,01,15,10.50
2017,05,24,01,16,11.20
2017,05,24,01,17,6.90
2017,05,24,01,18,8.90
2017,05,24,01,19,9.10
2017,05,24,01,20,9.60
2017,05,24,01,21,8.10
2017,05,24,01,22,6.70
2017,05,24,01,23,7.00
2017,05,24,01,24,6.90
2017,05,24,01,25,7.50
2017,05,24,01,26,6.70
2017,05,24,01,27,4.50
2017,05,24,01,28,9.10
2017,05,24,01,29,4.80
2017,05,24,01,30,8.60
2017,05,24,01,31,7.70
2017,05,24,01,32,7.80
2017,05,24,01,33,5.80
2017,05,24,01,34,3.10
2017,05,24,01,35,6.40
2017,05,24,01,36,5.80
2017,05,24,01,37,6.40
2017,05,24,01,38,4.50
2017,05,24,01,39,6.00
2017,05,24,01,40,7.50
2017,05,24,01,41,6.40
2017,05,24,01,42,5.00
2017,05,24,01,43,6.10
2017,05,24,01,44,7.60
2017,05,24,01,45,6.20
2017,05,24,01,46,2.00
2017,05,24,01,47,3.80
2017,05,24,01,48,5.20
2017,05,24,01,49,3.60
2017,05,24,01,50,1.50
2017,05,24,01,51,3.60
2017,05,24,01,52,2.10
2017,05,24,01,53,0.90
2017,05,24,01,54,0.80
2017,05,24,01,55,2.40
2017,05,24,01,56,3.20
2017,05,24,01,57,3.60
2017,05,24,01,58,4.00
2017,05,24,01,59,2.60
2017,05,24,02,00,3.40
2017,05,24,02,01,3.10
2017,05,24,02,02,3.10
2017,05,24,02,03,1.60
2017,05,24,02,04,2.30
2017,05,24,02,05,1.10
2017,05,24,02,06,0.20
2017,05,24,02,07,1.20
2017,05,24,02,08,1.40
2017,05,24,02,09,0.50
2017,05,24,02,10,0.50
2017,05,24,02,11,1.60
2017,05,24,02,12,2.50
2017,05,24,02,13,3.60
2017,05,24,02,14,5.00
2017,05,24,02,15,4.90
2017,05,24,02,16,4.70
2017,05,24,02,17,3.50
2017,05,24,02,18,3.50
2017,05,24,02,19,5.80
2017,05,24,02,20,6.40
2017,05,24,02,21,3.90
2017,05,24,02,22,3.30
2017,05,24,02,23,3.30
2017,05,24,02,24,4.30
2017,05,24,02,25,5.30
2017,05,24,02,26,7.20
2017,05,24,02,27,8.90
2017,05,24,02,28,7.40
2017,05,24,02,29,11.00
2017,05,24,02,30,10.30
2017,05,24,02,31,10.60
2017,05,24,02,32,9.30
2017,05,24,02,33,10.10
2017,05,24,02,34,10.50
2017,05,24,02,35,10.40
2017,05,24,02,36,9.50
2017,05,24,02,37,6.00
2017,05,24,02,38,8.50
2017,05,24,02,39,9.70
2017,05,24,02,40,10.00
2017,05,24,02,41,9.00
2017,05,24,02,42,3.70
2017,05,24,02,43,6.40
2017,05,24,02,44,6.80
2017,05,24,02,45,7.30
2017,05,24,02,46,6.90
2017,05,24,02,47,6.80
2017,05,24,02,48,8.30
2017,05,24,02,49,6.60
2017,05,24,02,50,5.60
2017,05,24,02,51,4.00
2017,05,24,02,52,3.10
2017,05,24,02,53,4.10
2017,05,24,02,54,6.40
2017,05,24,02,55,5.70
2017,05,24,02,56,5.00
2017,05,24,02,57,5.70
2017,05,24,02,58,5.20
2017,05,24,02,59,5.50
2017,05,24,03,00,4.40
2017,05,24,03,01,4.90
2017,05,24,03,02,4.30
2017,05,24,03,03,6.60
2017,05,24,03,04,5.10
2017,05,24,03,05,6.20
2017,05,24,03,06,7.30
2017,05,24,03,07,6.80
2017,05,24,03,08,7.70
2017,05,24,03,09,7.10
2017,05,24,03,10,7.10
2017,05,24,03,11,7.20
2017,05,24,03,12,6.40
2017,05,24,03,13,7.90
2017,05,24,03,14,7.20
2017,05,24,03,15,5.70
2017,05,24,03,16,7.10
2017,05,24,03,17,6.10
2017,05,24,03,18,8.90
2017,05,24,03,19,7.60
2017,05,24,03,20,6.90
2017,05,24,03,21,8.10
2017,05,24,03,22,7.20
2017,05,24,03,23,6.70
2017,05,24,03,24,8.90
2017,05,24,03,25,7.70
2017,05,24,03,26,8.60
2017,05,24,03,27,7.70
2017,05,24,03,28,7.70
2017,05,24,03,29,6.40
2017,05,24,03,30,8.50
2017,05,24,03,31,6.30
2017,05,24,03,32,5.30
2017,05,24,03,33,7.90
2017,05,24,03,34,7.50
2017,05,24,03,35,8.20
2017,05,24,03,36,7.10
2017,05,24,03,37,7.80
2017,05,24,03,38,7.90
2017,05,24,03,39,7.50
2017,05,24,03,40,8.40
2017,05,24,03,41,6.40
2017,05,24,03,42,8.90
2017,05,24,03,43,9.40
2017,05,24,03,44,5.30
2017,05,24,03,45,9.70
2017,05,24,03,46,7.10
2017,05,24,03,47,9.20
2017,05,24,03,48,6.40
2017,05,24,03,49,7.00
2017,05,24,03,50,5.60
2017,05,24,03,51,6.40
2017,05,24,03,52,7.70
2017,05,24,03,53,9.60
2017,05,24,03,54,6.30
2017,05,24,03,55,8.10
2017,05,24,03,56,8.60
2017,05,24,03,57,7.10
2017,05,24,03,58,8.20
2017,05,24,03,59,7.70
2017,05,24,04,00,6.10
2017,05,24,04,01,6.80
2017,05,24,04,02,5.70
2017,05,24,04,03,5.60
2017,05,24,04,04,4.20
2017,05,24,04,05,6.70
2017,05,24,04,06,5.10
2017,05,24,04,07,9.00
2017,05,24,04,08,11.70
2017,05,24,04,09,7.80
2017,05,24,04,10,9.10
2017,05,24,04,11,8.60
2017,05,24,04,12,11.80
2017,05,24,04,13,9.20
2017,05,24,04,14,11.50
2017,05,24,04,15,9.30
2017,05,24,04,16,9.60
2017,05,24,04,17,10.30
2017,05,24,04,18,7.60
2017,05,24,04,19,10.70
2017,05,24,04,20,10.80
2017,05,24,04,21,12.10
2017,05,24,04,22,11.30
2017,05,24,04,23,9.20
2017,05,24,04,24,11.60
2017,05,24,04,25,9.40
2017,05,24,04,26,12.20
2017,05,24,04,27,10.20
2017,05,24,04,28,10.20
2017,05,24,04,29,9.30
2017,05,24,04,30,6.50
2017,05,24,04,31,6.90
2017,05,24,04,32,9.40
2017,05,24,04,33,8.50
2017,05,24,04,34,10.30
2017,05,24,04,35,9.70
2017,05,24,04,36,10.80
2017,05,24,04,37,11.30
2017,05,24,04,38,9.70
2017,05,24,04,39,6.90
2017,05,24,04,40,5.90
2017,05,24,04,41,4.30
2017,05,24,04,42,5.60
2017,05,24,04,43,8.20
2017,05,24,04,44,5.20
2017,05,24,04,45,4.30
2017,05,24,04,46,5.80
2017,05,24,04,47,5.90
2017,05,24,04,48,6.90
2017,05,24,04,49,4.70
2017,05,24,04,50,5.10
2017,05,24,04,51,4.40
2017,05,24,04,52,2.40
2017,05,24,04,53,4.60
2017,05,24,04,54,5.30
2017,05,24,04,55,4.10
2017,05,24,04,56,2.50
2017,05,24,04,57,1.10
2017,05,24,04,58,0.00
2017,05,24,04,59,0.70
2017,05,24,05,00,1.00
2017,05,24,05,01,1.80
2017,05,24,05,02,0.80
2017,05,24,05,03,0.10
2017,05,24,05,04,0.40
2017,05,24,05,05,1.70
2017,05,24,05,06,0.60
2017,05,24,05,07,0.90
2017,05,24,05,08,0.20
2017,05,24,05,09,1.70
2017,05,24,05,10,0.30
2017,05,24,05,11,2.10
2017,05,24,05,12,4.30
2017,05,24,05,13,5.40
2017,05,24,05,14,4.40
2017,05,24,05,15,3.70
2017,05,24,05,16,5.50
2017,05,24,05,17,5.00
2017,05,24,05,18,4.00
2017,05,24,05,19,4.70
2017,05,24,05,20,4.30
2017,05,24,05,21,4.60
2017,05,24,05,22,5.90
2017,05,24,05,23,5.10
2017,05,24,05,24,5.60
2017,05,24,05,25,2.00
2017,05,24,05,26,2.40
2017,05,24,05,27,3.60
2017,05,24,05,28,4.90
2017,05,24,05,29,5.70
2017,05,24,05,30,5.10
2017,05,24,05,31,5.60
2017,05,24,05,32,3.10
2017,05,24,05,33,3.00
2017,05,24,05,34,2.40
2017,05,24,05,35,1.80
2017,05,24,05,36,1.60
2017,05,24,05,37,0.00
2017,05,24,05,38,0.00
2017,05,24,05,39,0.00
2017,05,24,05,40,0.00
2017,05,24,05,41,0.00
2017,05,24,05,42,0.00
2017,05,24,05,43,0.00
2017,05,24,05,44,0.00
2017,05,24,05,45,0.00
2017,05,24,05,46,0.00
2017,05,24,05,47,0.00
2017,05,24,05,48,0.00
2017,05,24,05,49,0.00
2017,05,24,05,50,0.00
2017,05,24,05,51,0.00
2017,05,24,05,52,0.00
2017,05,24,05,53,0.00
2017,05,24,05,54,0.00
2017,05,24,05,55,0.00
2017,05,24,05,56,0.00
2017,05,24,05,57,0.00
2017,05,24,05,58,0.00
2017,05,24,05,59,0.00
2017,05,24,06,00,0.00
2017,05,24,06,01,0.00
2017,05,24,06,02,0.00
2017,05,24,06,03,0.00
2017,05,24,06,04,0.00
2017,05,24,06,05,0.00
2017,05,24,06,06,0.20
2017,05,24,06,07,0.20
2017,05,24,06,08,0.00
2017,05,24,06,09,0.00
2017,05,24,06,10,0.00
2017,05,24,06,11,0.00
2017,05,24,06,12,0.00
2017,05,24,06,13,0.00
2017,05,24,06,14,0.00
2017,05,24,06,15,0.00
2017,05,24,06,16,0.00
2017,05,24,06,17,0.00
2017,05,24,06,18,0.00
2017,05,24,06,19,0.00
2017,05,24,06,20,0.10
2017,05,24,06,21,0.20
2017,05,24,06,22,2.50
2017,05,24,06,23,0.00
2017,05,24,06,24,0.60
2017,05,24,06,25,3.10
2017,05,24,06,26,5.80
2017,05,24,06,27,6.00
2017,05,24,06,28,4.80
2017,05,24,06,29,3.10
2017,05,24,06,30,4.60
2017,05,24,06,31,3.00
2017,05,24,06,32,1.00
2017,05,24,06,33,0.90
2017,05,24,06,34,4.00
2017,05,24,06,35,4.00
2017,05,24,06,36,4.70
2017,05,24,06,37,4.40
2017,05,24,06,38,2.30
2017,05,24,06,39,8.10
2017,05,24,06,40,3.00
2017,05,24,06,41,2.70
2017,05,24,06,42,2.40
2017,05,24,06,43,4.60
2017,05,24,06,44,4.10
2017,05,24,06,45,4.10
2017,05,24,06,46,5.40
2017,05,24,06,47,6.70
2017,05,24,06,48,6.40
2017,05,24,06,49,4.90
2017,05,24,06,50,5.90
2017,05,24,06,51,7.30
2017,05,24,06,52,6.40
2017,05,24,06,53,6.40
2017,05,24,06,54,7.20
2017,05,24,06,55,6.00
2017,05,24,06,56,7.30
2017,05,24,06,57,6.70
2017,05,24,06,58,6.80
2017,05,24,06,59,6.00
2017,05,24,07,00,6.00
2017,05,24,07,01,6.40
2017,05,24,07,02,4.20
2017,05,24,07,03,4.50
2017,05,24,07,04,4.80
2017,05,24,07,05,5.60
2017,05,24,07,06,3.00
2017,05,24,07,07,4.20
2017,05,24,07,08,4.30
2017,05,24,07,09,2.10
2017,05,24,07,10,3.10
2017,05,24,07,11,3.70
2017,05,24,07,12,3.60
2017,05,24,07,13,6.80
2017,05,24,07,14,3.50
2017,05,24,07,15,3.20
2017,05,24,07,16,2.30
2017,05,24,07,17,3.00
2017,05,24,07,18,3.10
2017,05,24,07,19,4.90
2017,05,24,07,20,8.50
2017,05,24,07,21,4.90
2017,05,24,07,22,1.50
2017,05,24,07,23,0.00
2017,05,24,07,24,0.30
2017,05,24,07,25,1.80
2017,05,24,07,26,1.10
2017,05,24,07,27,3.40
2017,05,24,07,28,6.20
2017,05,24,07,29,5.10
2017,05,24,07,30,4.10
2017,05,24,07,31,3.40
2017,05,24,07,32,3.10
2017,05,24,07,33,1.50
2017,05,24,07,34,1.00
2017,05,24,07,35,2.80
2017,05,24,07,36,3.90
2017,05,24,07,37,2.60
2017,05,24,07,38,0.70
2017,05,24,07,39,0.30
2017,05,24,07,40,0.40
2017,05,24,07,41,0.60
2017,05,24,07,42,1.10
2017,05,24,07,43,0.00
2017,05,24,07,44,0.10
2017,05,24,07,45,0.00
2017,05,24,07,46,0.00
2017,05,24,07,47,1.00
2017,05,24,07,48,3.20
2017,05,24,07,49,1.20
2017,05,24,07,50,0.00
2017,05,24,07,51,0.00
2017,05,24,07,52,0.00
2017,05,24,07,53,1.30
2017,05,24,07,54,1.00
2017,05,24,07,55,0.80
2017,05,24,07,56,0.40
2017,05,24,07,57,0.60
2017,05,24,07,58,0.00
2017,05,24,07,59,1.50
2017,05,24,08,00,0.60
2017,05,24,08,01,1.00
2017,05,24,08,02,0.10
2017,05,24,08,03,0.70
2017,05,24,08,04,0.40
2017,05,24,08,05,0.50
2017,05,24,08,06,2.50
2017,05,24,08,07,2.30
2017,05,24,08,08,1.60
2017,05,24,08,09,0.00
2017,05,24,08,10,0.00
2017,05,24,08,11,0.00
2017,05,24,08,12,0.10
2017,05,24,08,13,0.50
2017,05,24,08,14,2.60
2017,05,24,08,15,2.40
2017,05,24,08,16,0.80
2017,05,24,08,17,0.70
2017,05,24,08,18,0.20
2017,05,24,08,19,2.80
2017,05,24,08,20,3.20
2017,05,24,08,21,2.80
2017,05,24,08,22,1.40
2017,05,24,08,23,1.60
2017,05,24,08,24,3.30
2017,05,24,08,25,2.30
2017,05,24,08,26,0.60
2017,05,24,08,27,0.00
2017,05,24,08,28,0.00
2017,05,24,08,29,0.60
2017,05,24,08,30,1.00
2017,05,24,08,31,2.30
2017,05,24,08,32,2.60
2017,05,24,08,33,3.40
2017,05,24,08,34,8.10
2017,05,24,08,35,5.90
2017,05,24,08,36,5.60
2017,05,24,08,37,6.10
2017,05,24,08,38,4.80
2017,05,24,08,39,1.00
2017,05,24,08,40,1.40
2017,05,24,08,41,1.50
2017,05,24,08,42,3.70
2017,05,24,08,43,4.30
2017,05,24,08,44,4.70
2017,05,24,08,45,3.80
2017,05,24,08,46,1.90
2017,05,24,08,47,2.90
2017,05,24,08,48,3.80
2017,05,24,08,49,2.40
2017,05,24,08,50,2.20
2017,05,24,08,51,2.70
2017,05,24,08,52,2.50
2017,05,24,08,53,2.10
2017,05,24,08,54,1.00
2017,05,24,08,55,0.00
2017,05,24,08,56,0.10
2017,05,24,08,57,0.60
2017,05,24,08,58,1.00
2017,05,24,08,59,1.90
2017,05,24,09,00,0.60
2017,05,24,09,01,0.60
2017,05,24,09,02,0.40
2017,05,24,09,03,0.10
2017,05,24,09,04,1.70
2017,05,24,09,05,2.00
2017,05,24,09,06,0.70
2017,05,24,09,07,2.30
2017,05,24,09,08,1.80
2017,05,24,09,09,1.00
2017,05,24,09,10,3.60
2017,05,24,09,11,3.60
2017,05,24,09,12,2.80
2017,05,24,09,13,2.90
2017,05,24,09,14,1.50
2017,05,24,09,15,4.60
2017,05,24,09,16,3.70
2017,05,24,09,17,5.50
2017,05,24,09,18,3.90
2017,05,24,09,19,4.50
2017,05,24,09,20,4.60
2017,05,24,09,21,4.10
2017,05,24,09,22,1.40
2017,05,24,09,23,3.30
2017,05,24,09,24,0.70
2017,05,24,09,25,1.60
2017,05,24,09,26,1.40
2017,05,24,09,27,1.70
2017,05,24,09,28,2.00
2017,05,24,09,29,3.60
2017,05,24,09,30,4.40
2017,05,24,09,31,3.60
2017,05,24,09,32,3.00
2017,05,24,09,33,3.50
2017,05,24,09,34,3.60
2017,05,24,09,35,2.20
2017,05,24,09,36,3.60
2017,05,24,09,37,4.20
2017,05,24,09,38,6.00
2017,05,24,09,39,5.10
2017,05,24,09,40,5.50
2017,05,24,09,41,3.90
2017,05,24,09,42,2.60
2017,05,24,09,43,5.10
2017,05,24,09,44,3.00
2017,05,24,09,45,2.80
2017,05,24,09,46,1.60
2017,05,24,09,47,3.60
2017,05,24,09,48,3.70
2017,05,24,09,49,5.10
2017,05,24,09,50,2.10
2017,05,24,09,51,5.10
2017,05,24,09,52,3.90
2017,05,24,09,53,4.50
2017,05,24,09,54,4.70
2017,05,24,09,55,4.00
2017,05,24,09,56,1.40
2017,05,24,09,57,6.80
2017,05,24,09,58,7.50
2017,05,24,09,59,9.80
2017,05,24,10,00,7.00
2017,05,24,10,01,8.30
2017,05,24,10,02,7.00
2017,05,24,10,03,5.00
2017,05,24,10,04,4.60
2017,05,24,10,05,6.80
2017,05,24,10,06,2.70
2017,05,24,10,07,5.20
2017,05,24,10,08,6.50
2017,05,24,10,09,4.60
2017,05,24,10,10,4.20
2017,05,24,10,11,4.80
2017,05,24,10,12,8.20
2017,05,24,10,13,3.80
2017,05,24,10,14,3.40
2017,05,24,10,15,3.50
2017,05,24,10,16,3.90
2017,05,24,10,17,7.10
2017,05,24,10,18,4.70
2017,05,24,10,19,3.50
2017,05,24,10,20,4.10
2017,05,24,10,21,7.30
2017,05,24,10,22,4.60
2017,05,24,10,23,4.00
2017,05,24,10,24,4.90
2017,05,24,10,25,5.80
2017,05,24,10,26,5.70
2017,05,24,10,27,1.50
2017,05,24,10,28,7.80
2017,05,24,10,29,4.90
2017,05,24,10,30,5.80
2017,05,24,10,31,3.20
2017,05,24,10,32,4.70
2017,05,24,10,33,6.70
2017,05,24,10,34,5.90
2017,05,24,10,35,4.10
2017,05,24,10,36,5.00
2017,05,24,10,37,5.10
2017,05,24,10,38,3.60
2017,05,24,10,39,6.60
2017,05,24,10,40,7.50
2017,05,24,10,41,7.80
2017,05,24,10,42,6.40
2017,05,24,10,43,7.60
2017,05,24,10,44,5.20
2017,05,24,10,45,6.00
2017,05,24,10,46,6.80
2017,05,24,10,47,5.10
2017,05,24,10,48,6.60
2017,05,24,10,49,7.40
2017,05,24,10,50,2.70
2017,05,24,10,51,5.00
2017,05,24,10,52,5.30
2017,05,24,10,53,4.90
2017,05,24,10,54,4.20
2017,05,24,10,55,5.80
2017,05,24,10,56,3.30
2017,05,24,10,57,4.30
2017,05,24,10,58,3.90
2017,05,24,10,59,3.90
2017,05,24,11,00,5.10
2017,05,24,11,01,8.70
2017,05,24,11,02,8.60
2017,05,24,11,03,9.20
2017,05,24,11,04,9.20
2017,05,24,11,05,6.80
2017,05,24,11,06,5.10
2017,05,24,11,07,7.00
2017,05,24,11,08,7.50
2017,05,24,11,09,7.40
2017,05,24,11,10,6.00
2017,05,24,11,11,5.80
2017,05,24,11,12,7.20
2017,05,24,11,13,10.60
2017,05,24,11,14,10.30
2017,05,24,11,15,12.60
2017,05,24,11,16,15.40
2017,05,24,11,17,11.50
2017,05,24,11,18,11.80
2017,05,24,11,19,8.90
2017,05,24,11,20,4.70
2017,05,24,11,21,7.40
2017,05,24,11,22,5.10
2017,05,24,11,23,4.90
2017,05,24,11,24,6.90
2017,05,24,11,25,6.10
2017,05,24,11,26,4.90
2017,05,24,11,27,4.20
2017,05,24,11,28,4.60
2017,05,24,11,29,9.20
2017,05,24,11,30,6.30
2017,05,24,11,31,6.00
2017,05,24,11,32,6.10
2017,05,24,11,33,8.60
2017,05,24,11,34,9.50
2017,05,24,11,35,12.50
2017,05,24,11,36,13.80
2017,05,24,11,37,15.20
2017,05,24,11,38,16.00
2017,05,24,11,39,9.80
2017,05,24,11,40,9.10
2017,05,24,11,41,10.00
2017,05,24,11,42,11.30
2017,05,24,11,43,13.80
2017,05,24,11,44,12.60
2017,05,24,11,45,15.00
2017,05,24,11,46,9.70
2017,05,24,11,47,14.10
2017,05,24,11,48,11.80
2017,05,24,11,49,17.70
2017,05,24,11,50,16.10
2017,05,24,11,51,8.30
2017,05,24,11,52,5.00
2017,05,24,11,53,5.00
2017,05,24,11,54,8.50
2017,05,24,11,55,6.40
2017,05,24,11,56,7.70
2017,05,24,11,57,6.90
2017,05,24,11,58,10.00
2017,05,24,11,59,13.20
2017,05,24,12,00,13.70
2017,05,24,12,01,4.80
2017,05,24,12,02,12.50
2017,05,24,12,03,9.80
2017,05,24,12,04,7.60
2017,05,24,12,05,11.30
2017,05,24,12,06,8.20
2017,05,24,12,07,10.90
2017,05,24,12,08,11.90
2017,05,24,12,09,14.90
2017,05,24,12,10,15.70
2017,05,24,12,11,9.40
2017,05,24,12,12,6.90
2017,05,24,12,13,9.80
2017,05,24,12,14,6.70
2017,05,24,12,15,11.40
2017,05,24,12,16,10.50
2017,05,24,12,17,8.60
2017,05,24,12,18,11.10
2017,05,24,12,19,9.80
2017,05,24,12,20,14.40
2017,05,24,12,21,10.50
2017,05,24,12,22,9.60
2017,05,24,12,23,8.40
2017,05,24,12,24,8.50
2017,05,24,12,25,11.50
2017,05,24,12,26,12.20
2017,05,24,12,27,7.10
2017,05,24,12,28,7.10
2017,05,24,12,29,10.20
2017,05,24,12,30,11.60
2017,05,24,12,31,7.00
2017,05,24,12,32,7.00
2017,05,24,12,33,14.40
2017,05,24,12,34,12.80
2017,05,24,12,35,8.30
2017,05,24,12,36,13.40
2017,05,24,12,37,9.20
2017,05,24,12,38,5.90
2017,05,24,12,39,8.80
2017,05,24,12,40,12.60
2017,05,24,12,41,10.70
2017,05,24,12,42,6.00
2017,05,24,12,43,3.50
2017,05,24,12,44,12.90
2017,05,24,12,45,9.70
2017,05,24,12,46,9.30
2017,05,24,12,47,12.10
2017,05,24,12,48,15.40
2017,05,24,12,49,15.40
2017,05,24,12,50,13.70
2017,05,24,12,51,8.40
2017,05,24,12,52,8.20
2017,05,24,12,53,11.50
2017,05,24,12,54,12.40
2017,05,24,12,55,11.50
2017,05,24,12,56,10.50
2017,05,24,12,57,11.60
2017,05,24,12,58,11.60
2017,05,24,12,59,13.80
2017,05,24,13,00,14.20
2017,05,24,13,01,12.50
2017,05,24,13,02,13.40
2017,05,24,13,03,14.70
2017,05,24,13,04,14.00
2017,05,24,13,05,15.50
2017,05,24,13,06,15.20
2017,05,24,13,07,9.20
2017,05,24,13,08,9.80
2017,05,24,13,09,15.20
2017,05,24,13,10,12.20
2017,05,24,13,11,12.30
2017,05,24,13,12,11.80
2017,05,24,13,13,13.90
2017,05,24,13,14,10.40
2017,05,24,13,15,12.30
2017,05,24,13,16,13.00
2017,05,24,13,17,16.30
2017,05,24,13,18,16.30
2017,05,24,13,19,12.60
2017,05,24,13,20,14.50
2017,05,24,13,21,11.90
2017,05,24,13,22,15.60
2017,05,24,13,23,13.00
2017,05,24,13,24,13.10
2017,05,24,13,25,10.20
2017,05,24,13,26,11.10
2017,05,24,13,27,13.40
2017,05,24,13,28,8.40
2017,05,24,13,29,11.10
2017,05,24,13,30,8.00
2017,05,24,13,31,10.90
2017,05,24,13,32,7.90
2017,05,24,13,33,6.00
2017,05,24,13,34,9.60
2017,05,24,13,35,9.70
2017,05,24,13,36,10.20
2017,05,24,13,37,10.10
2017,05,24,13,38,8.00
2017,05,24,13,39,11.70
2017,05,24,13,40,10.30
2017,05,24,13,41,11.30
2017,05,24,13,42,8.10
2017,05,24,13,43,11.90
2017,05,24,13,44,11.10
2017,05,24,13,45,12.90
2017,05,24,13,46,12.20
2017,05,24,13,47,10.40
2017,05,24,13,48,10.30
2017,05,24,13,49,12.40
2017,05,24,13,50,10.90
2017,05,24,13,51,12.60
2017,05,24,13,52,12.00
2017,05,24,13,53,12.70
2017,05,24,13,54,14.30
2017,05,24,13,55,14.90
2017,05,24,13,56,13.80
2017,05,24,13,57,12.50
2017,05,24,13,58,13.00
2017,05,24,13,59,13.80
2017,05,24,14,00,14.10
2017,05,24,14,01,12.20
2017,05,24,14,02,13.10
2017,05,24,14,03,11.10
2017,05,24,14,04,8.20
2017,05,24,14,05,8.90
2017,05,24,14,06,10.50
2017,05,24,14,07,9.20
2017,05,24,14,08,14.80
2017,05,24,14,09,15.90
2017,05,24,14,10,10.10
2017,05,24,14,11,10.10
2017,05,24,14,12,8.10
2017,05,24,14,13,7.80
2017,05,24,14,14,12.40
2017,05,24,14,15,12.20
2017,05,24,14,16,12.30
2017,05,24,14,17,13.20
2017,05,24,14,18,14.20
2017,05,24,14,19,16.50
2017,05,24,14,20,15.70
2017,05,24,14,21,15.50
2017,05,24,14,22,15.80
2017,05,24,14,23,13.10
2017,05,24,14,24,8.80
2017,05,24,14,25,7.30
2017,05,24,14,26,10.00
2017,05,24,14,27,10.00
2017,05,24,14,28,9.30
2017,05,24,14,29,10.10
2017,05,24,14,30,12.60
2017,05,24,14,31,12.00
2017,05,24,14,32,8.90
2017,05,24,14,33,8.80
2017,05,24,14,34,10.90
2017,05,24,14,35,7.60
2017,05,24,14,36,9.30
2017,05,24,14,37,8.80
2017,05,24,14,38,10.60
2017,05,24,14,39,14.50
2017,05,24,14,40,11.70
2017,05,24,14,41,10.30
2017,05,24,14,42,11.70
2017,05,24,14,43,8.40
2017,05,24,14,44,10.00
2017,05,24,14,45,11.50
2017,05,24,14,46,10.50
2017,05,24,14,47,9.10
2017,05,24,14,48,13.10
2017,05,24,14,49,9.70
2017,05,24,14,50,12.00
2017,05,24,14,51,11.90
2017,05,24,14,52,10.90
2017,05,24,14,53,9.60
2017,05,24,14,54,8.00
2017,05,24,14,55,10.80
2017,05,24,14,56,10.50
2017,05,24,14,57,10.10
2017,05,24,14,58,10.00
2017,05,24,14,59,12.60
2017,05,24,15,00,10.80
2017,05,24,15,01,13.40
2017,05,24,15,02,13.00
2017,05,24,15,03,14.30
2017,05,24,15,04,10.30
2017,05,24,15,05,11.20
2017,05,24,15,06,9.70
2017,05,24,15,07,10.60
2017,05,24,15,08,12.60
2017,05,24,15,09,11.60
2017,05,24,15,10,8.70
2017,05,24,15,11,10.90
2017,05,24,15,12,10.80
2017,05,24,15,13,10.50
2017,05,24,15,14,11.50
2017,05,24,15,15,8.60
2017,05,24,15,16,8.60
2017,05,24,15,17,13.40
2017,05,24,15,18,10.90
2017,05,24,15,19,10.90
2017,05,24,15,20,11.10
2017,05,24,15,21,10.10
2017,05,24,15,22,16.50
2017,05,24,15,23,12.80
2017,05,24,15,24,9.20
2017,05,24,15,25,14.70
2017,05,24,15,26,9.40
2017,05,24,15,27,9.60
2017,05,24,15,28,8.50
2017,05,24,15,29,8.60
2017,05,24,15,30,10.10
2017,05,24,15,31,8.10
2017,05,24,15,32,9.90
2017,05,24,15,33,9.80
2017,05,24,15,34,7.10
2017,05,24,15,35,8.60
2017,05,24,15,36,8.80
2017,05,24,15,37,7.30
2017,05,24,15,38,9.50
2017,05,24,15,39,10.70
2017,05,24,15,40,9.50
2017,05,24,15,41,10.10
2017,05,24,15,42,12.10
2017,05,24,15,43,11.40
2017,05,24,15,44,9.30
2017,05,24,15,45,9.70
2017,05,24,15,46,8.40
2017,05,24,15,47,10.40
2017,05,24,15,48,10.40
2017,05,24,15,49,10.00
2017,05,24,15,50,9.60
2017,05,24,15,51,12.20
2017,05,24,15,52,11.00
2017,05,24,15,53,11.60
2017,05,24,15,54,15.60
2017,05,24,15,55,13.90
2017,05,24,15,56,15.10
2017,05,24,15,57,14.80
2017,05,24,15,58,11.70
2017,05,24,15,59,9.60
2017,05,24,16,00,10.80
2017,05,24,16,01,12.10
2017,05,24,16,02,11.40
2017,05,24,16,03,18.00
2017,05,24,16,04,15.50
2017,05,24,16,05,16.10
2017,05,24,16,06,9.70
2017,05,24,16,07,11.20
2017,05,24,16,08,9.80
2017,05,24,16,09,11.60
2017,05,24,16,10,10.80
2017,05,24,16,11,9.80
2017,05,24,16,12,10.50
2017,05,24,16,13,8.60
2017,05,24,16,14,10.40
2017,05,24,16,15,11.10
2017,05,24,16,16,8.90
2017,05,24,16,17,8.80
2017,05,24,16,18,8.30
2017,05,24,16,19,7.10
2017,05,24,16,20,3.80
2017,05,24,16,21,6.40
2017,05,24,16,22,11.90
2017,05,24,16,23,12.10
2017,05,24,16,24,7.30
2017,05,24,16,25,8.50
2017,05,24,16,26,8.50
2017,05,24,16,27,9.70
2017,05,24,16,28,5.40
2017,05,24,16,29,5.40
2017,05,24,16,30,7.20
2017,05,24,16,31,6.10
2017,05,24,16,32,6.80
2017,05,24,16,33,5.30
2017,05,24,16,34,4.60
2017,05,24,16,35,7.60
2017,05,24,16,36,13.30
2017,05,24,16,37,7.30
2017,05,24,16,38,4.60
2017,05,24,16,39,6.70
2017,05,24,16,40,6.30
2017,05,24,16,41,9.10
2017,05,24,16,42,6.00
2017,05,24,16,43,4.00
2017,05,24,16,44,4.90
2017,05,24,16,45,6.40
2017,05,24,16,46,7.00
2017,05,24,16,47,6.00
2017,05,24,16,48,5.70
2017,05,24,16,49,4.40
2017,05,24,16,50,5.20
2017,05,24,16,51,5.20
2017,05,24,16,52,4.30
2017,05,24,16,53,4.70
2017,05,24,16,54,8.40
2017,05,24,16,55,6.10
2017,05,24,16,56,7.00
2017,05,24,16,57,9.30
2017,05,24,16,58,9.20
2017,05,24,16,59,8.30
2017,05,24,17,00,9.20
2017,05,24,17,01,6.30
2017,05,24,17,02,7.10
2017,05,24,17,03,10.10
2017,05,24,17,04,7.10
2017,05,24,17,05,5.40
2017,05,24,17,06,4.60
2017,05,24,17,07,8.10
2017,05,24,17,08,5.40
2017,05,24,17,09,5.40
2017,05,24,17,10,11.50
2017,05,24,17,11,7.20
2017,05,24,17,12,8.30
2017,05,24,17,13,7.70
2017,05,24,17,14,7.10
2017,05,24,17,15,4.70
2017,05,24,17,16,6.80
2017,05,24,17,17,4.70
2017,05,24,17,18,7.20
2017,05,24,17,19,6.00
2017,05,24,17,20,5.20
2017,05,24,17,21,6.40
2017,05,24,17,22,7.20
2017,05,24,17,23,5.30
2017,05,24,17,24,7.70
2017,05,24,17,25,7.70
2017,05,24,17,26,4.30
2017,05,24,17,27,6.20
2017,05,24,17,28,5.50
2017,05,24,17,29,8.50
2017,05,24,17,30,4.40
2017,05,24,17,31,4.90
2017,05,24,17,32,5.90
2017,05,24,17,33,8.60
2017,05,24,17,34,6.50
2017,05,24,17,35,6.20
2017,05,24,17,36,4.70
2017,05,24,17,37,4.70
2017,05,24,17,38,5.50
2017,05,24,17,39,7.20
2017,05,24,17,40,14.50
2017,05,24,17,41,10.60
2017,05,24,17,42,7.20
2017,05,24,17,43,8.10
2017,05,24,17,44,7.60
2017,05,24,17,45,5.40
2017,05,24,17,46,5.00
2017,05,24,17,47,3.60
2017,05,24,17,48,5.10
2017,05,24,17,49,4.10
2017,05,24,17,50,4.70
2017,05,24,17,51,3.00
2017,05,24,17,52,8.40
2017,05,24,17,53,8.60
2017,05,24,17,54,7.20
2017,05,24,17,55,8.50